Location: *
(43.6428°N, 11.5461°E)
Time: 14:16:10
(UTC+00:00)

H-2A R/B - Pass Details

Date: 21 October 2019
Orbit: 733 x 837 km, 98.3° (Epoch: 20 November)

Event Time Altitude Azimuth Distance (km) Brightness Sun altitude
Exits shadow 18:42:58 36° 22° (NNE) 1,287 3.0 -26.2°
Drops below altitude 10° 18:46:27 10° 357° (N) 2,450 4.7 -26.9°
Sets 18:48:54 0° 352° (N) 3,394 5.6 -27.3°
